User: anonymous   Login
Location: Caltech
(34.1382°N, 118.1253°W)
Time: 05:38:24
(UTC-08:00)
Language:

GPS 2-04 Rocket1 - Orbit

View from above orbital plane
View from above orbital plane
View from above satellite
View from above satellite

Ground track
Ground track

The orbit data is extracted from the following two-line orbital elements,

1 20303U 89085B   14352.30711524  .00015209  00000-0  67642-3 0  9430
2 20303 035.6328 301.7503 0129793 077.2718 077.1329 15.13399189361759
Epoch (UTC): 18 December 2014 07:22:14
Eccentricity: 0.0129793
inclination: 35.6328°
perigee height: 436 km
apogee height: 615 km
right ascension of ascending node: 301.7503°
argument of perigee: 77.2718°
revolutions per day: 15.13399189
mean anomaly at epoch: 77.1329°
orbit number at epoch: 36175

The dashed part of the orbit path shows where the satellite is in the earth's shadow,  

DLR